Hampton, VA

3:49 AM EDT on August 31, 2016 (GMT -0400)
Langley Air Force Base

Weather History for KLFI - February, 2013

Change the Weather History Date:

Friday, February 22, 2013

  Actual Average Record
Temperature  
Mean Temperature 38 °F -  
Max Temperature 41 °F 55 °F 73 °F (1993)
Min Temperature 34 °F 35 °F 17 °F (1963)
Degree Days  
Heating Degree Days 28    
Moisture  
Dew Point 33 °F    
Average Humidity 82    
Maximum Humidity 100    
Minimum Humidity 56    
Precipitation  
Precipitation 0.02 in - - ()
Sea Level Pressure  
Sea Level Pressure 30.28 in    
Wind  
Wind Speed 8 mph (NE)    
Max Wind Speed 14 mph    
Max Gust Speed -    
Visibility 10 miles    
Events Rain    
Averages and records for this station are not official NWS values.
T = Trace of Precipitation, MM = Missing Value Source: NWS Daily Summary

Daily Weather History Graph

Daily Weather History Graph

Search for Another Location

Airport or City:

Trip Planner

Search our weather history database for the weather conditions in past years. The results will help you decide how hot, cold, wet, or windy it might be!

Date:

Astronomy

Feb. 22, 2013 Rise Set
Actual Time 6:45 AM EST 5:52 PM EST
Civil Twilight 6:19 AM EST 6:19 PM EST
Nautical Twilight 5:48 AM EST 6:49 PM EST
Astronomical Twilight 5:18 AM EST 7:19 PM EST
Moon 3:04 PM EST (2/22) 4:26 AM EST (2/22)
Length of Visible Light 12h 00m
Length of Day
11h 07m
Waxing Gibbous, 90% of the Moon is Illuminated
Feb 22
Waxing Gibbous
Feb 25
Full
Mar 4
Last Quarter
Mar 11
New
Mar 19
First Quarter

Hourly Weather History & Observations

Time (EST) Temp. Windchill Dew Point Humidity Pressure Visibility Wind Dir Wind Speed Gust Speed Precip Events Conditions
12:55 AM 35.2 °F 27.1 °F 21.6 °F 58% 30.29 in 10.0 mi NNE 11.5 mph - N/A   Clear
1:55 AM 34.9 °F 27.7 °F 21.0 °F 57% 30.32 in 10.0 mi North 9.2 mph - N/A   Clear
2:55 AM 34.2 °F 28.2 °F 20.3 °F 57% 30.36 in 10.0 mi WNW 6.9 mph - N/A   Partly Cloudy
3:55 AM 34.3 °F 28.4 °F 19.9 °F 56% 30.35 in 10.0 mi NW 6.9 mph - N/A   Mostly Cloudy
4:55 AM 34.2 °F 29.0 °F 19.9 °F 56% 30.37 in 10.0 mi NNW 5.8 mph - N/A   Mostly Cloudy
5:55 AM 34.2 °F 27.5 °F 20.5 °F 57% 30.37 in 10.0 mi North 8.1 mph - N/A   Mostly Cloudy
6:55 AM 34.3 °F 28.4 °F 22.8 °F 63% 30.35 in 10.0 mi NE 6.9 mph - N/A   Partly Cloudy
7:55 AM 35.1 °F 27.9 °F 24.8 °F 66% 30.38 in 10.0 mi NNE 9.2 mph - N/A   Overcast
8:55 AM 35.4 °F 26.4 °F 25.2 °F 66% 30.37 in 10.0 mi ENE 13.8 mph - N/A   Overcast
9:44 AM 35.6 °F 26.6 °F 24.8 °F 65% 30.35 in 10.0 mi East 13.8 mph - N/A   Light Ice Pellets
9:55 AM 35.4 °F 26.8 °F 26.4 °F 70% 30.35 in 10.0 mi ENE 12.7 mph - 0.00 in Rain Light Rain
10:43 AM 35.6 °F 27.5 °F 30.2 °F 81% 30.33 in 10.0 mi East 11.5 mph - N/A   Overcast
10:55 AM 36.0 °F 27.5 °F 30.6 °F 81% 30.33 in 10.0 mi East 12.7 mph - 0.01 in   Overcast
11:39 AM 37.4 °F 32.1 °F 32.0 °F 81% 30.35 in 10.0 mi East 6.9 mph - N/A   Overcast
11:55 AM 37.6 °F 32.3 °F 31.3 °F 78% 30.35 in 10.0 mi East 6.9 mph - N/A   Overcast
12:47 PM 39.2 °F 35.9 °F 32.0 °F 75% 30.32 in 10.0 mi ENE 4.6 mph - N/A   Overcast
12:55 PM 40.1 °F 36.9 °F 32.9 °F 75% 30.32 in 10.0 mi East 4.6 mph - N/A   Overcast
1:55 PM 40.1 °F 36.1 °F 31.6 °F 72% 30.31 in 10.0 mi ENE 5.8 mph - N/A   Overcast
2:55 PM 40.5 °F 36.5 °F 33.4 °F 76% 30.29 in 10.0 mi East 5.8 mph - N/A   Overcast
3:55 PM 39.6 °F 34.0 °F 34.0 °F 80% 30.29 in 10.0 mi NE 8.1 mph - N/A   Overcast
4:11 PM 39.2 °F 35.0 °F 33.8 °F 81% 30.28 in 10.0 mi ENE 5.8 mph - N/A   Overcast
4:49 PM 39.2 °F 35.0 °F 33.8 °F 81% 30.28 in 10.0 mi ENE 5.8 mph - N/A   Overcast
4:55 PM 39.4 °F 34.5 °F 34.2 °F 82% 30.28 in 10.0 mi ENE 6.9 mph - 0.00 in   Overcast
4:59 PM 39.2 °F 33.6 °F 33.8 °F 81% 30.27 in 10.0 mi ENE 8.1 mph - N/A   Overcast
5:47 PM 39.2 °F 37.0 °F 33.8 °F 81% 30.28 in 10.0 mi NNE 3.5 mph - N/A   Overcast
5:55 PM 39.0 °F 35.7 °F 34.3 °F 83% 30.27 in 10.0 mi NE 4.6 mph - 0.00 in   Overcast
5:56 PM 39.2 °F 37.0 °F 33.8 °F 81% 30.28 in 10.0 mi North 3.5 mph - N/A   Overcast
6:02 PM 39.2 °F 35.9 °F 35.6 °F 87% 30.28 in 10.0 mi NNE 4.6 mph - N/A Rain Light Rain
6:15 PM 39.2 °F - 35.6 °F 87% 30.28 in 10.0 mi Calm Calm - N/A Rain Light Rain
6:28 PM 39.2 °F 35.0 °F 35.6 °F 87% 30.29 in 10.0 mi NNE 5.8 mph - N/A   Overcast
6:48 PM 37.4 °F 31.4 °F 35.6 °F 93% 30.28 in 10.0 mi NE 8.1 mph - N/A   Overcast
6:55 PM 37.9 °F 32.1 °F 35.6 °F 91% 30.28 in 10.0 mi NE 8.1 mph - 0.00 in   Overcast
7:55 PM 37.8 °F 31.3 °F 35.6 °F 92% 30.25 in 10.0 mi NE 9.2 mph - N/A   Overcast
8:43 PM 39.2 °F 33.6 °F 37.4 °F 93% 30.25 in 10.0 mi NE 8.1 mph - N/A   Overcast
8:55 PM 38.7 °F 34.3 °F 36.7 °F 93% 30.25 in 10.0 mi NNE 5.8 mph - 0.00 in   Overcast
9:03 PM 39.2 °F 34.2 °F 37.4 °F 93% 30.24 in 10.0 mi NE 6.9 mph - N/A   Overcast
9:16 PM 39.2 °F 35.9 °F 37.4 °F 93% 30.23 in 10.0 mi NE 4.6 mph - N/A   Overcast
9:28 PM 39.2 °F 34.2 °F 37.4 °F 93% 30.23 in 10.0 mi NE 6.9 mph - N/A   Overcast
9:38 PM 39.2 °F 35.0 °F 37.4 °F 93% 30.23 in 10.0 mi NE 5.8 mph - N/A   Overcast
9:47 PM 39.2 °F 33.6 °F 37.4 °F 93% 30.22 in 10.0 mi ENE 8.1 mph - N/A   Overcast
9:55 PM 39.2 °F 33.6 °F 37.6 °F 94% 30.23 in 10.0 mi NE 8.1 mph - 0.00 in   Overcast
10:08 PM 39.2 °F 34.2 °F 37.4 °F 93% 30.23 in 10.0 mi NE 6.9 mph - N/A   Overcast
10:22 PM 39.2 °F 35.0 °F 37.4 °F 93% 30.22 in 10.0 mi NE 5.8 mph - N/A   Overcast
10:38 PM 39.2 °F 34.2 °F 37.4 °F 93% 30.22 in 10.0 mi NE 6.9 mph - N/A Rain Light Rain
10:55 PM 39.7 °F 36.5 °F 38.5 °F 95% 30.21 in 10.0 mi NE 4.6 mph - 0.00 in Rain Light Rain
10:58 PM 39.2 °F 35.9 °F 39.2 °F 100% 30.20 in 9.0 mi ENE 4.6 mph - N/A Rain Light Rain
11:16 PM 41.0 °F 38.0 °F 39.2 °F 93% 30.20 in 10.0 mi NE 4.6 mph - N/A   Overcast
11:29 PM 41.0 °F 36.4 °F 39.2 °F 93% 30.19 in 10.0 mi NNE 6.9 mph - N/A Rain Light Rain
11:38 PM 41.0 °F 38.0 °F 39.2 °F 93% 30.19 in 10.0 mi NE 4.6 mph - N/A   Overcast
11:45 PM 41.0 °F 36.4 °F 39.2 °F 93% 30.19 in 10.0 mi NE 6.9 mph - N/A   Overcast
11:55 PM 40.3 °F 36.3 °F 39.2 °F 96% 30.19 in 10.0 mi North 5.8 mph - 0.01 in   Overcast
11:56 PM 41.0 °F 38.0 °F 39.2 °F 93% 30.19 in 9.0 mi North 4.6 mph - N/A Rain Light Rain